Preview of NWS' New Version of Forecast
This preview is not operational and should not be used for support decisions.
Latest weather observations around

Williamsburg-Whitley County Airport (KBYL)

Using English Units (Switch to International System of Units)
Date/ Time (EST) Wind (mph) Vis. (mi) Weather Sky Cond. Temp (°F) Rel. Humidity Wind Chill (°F) Heat Index (°F) Pressure Precip. (in)
Air Dwpt 6 hour Altimeter (inHg) Sea level (inHg) 1 hr 3 hr 6 hr
Max Min
Jan 18 00:35 SW 5 3 Clear   41 41     100% 38   30.08        
Jan 18 00:15 Calm 5 Clear   41 41     100%     30.08        
Jan 17 23:55 WSW 3 5 Clear   41 41     100% 39   30.08        
Jan 17 23:35 Calm 5 Clear   41 41     100%     30.08        
Jan 17 23:15 SSW 3 5 Clear   41 41     100% 39   30.07        
Jan 17 22:55 S 3 5 Clear   41 41     100% 39   30.07        
Jan 17 22:35 SSE 3 5 Clear   41 41     100% 39   30.06        
Jan 17 22:15 Calm 7 Clear   41 41     100%     30.07        
Jan 17 21:55 Calm 4 Clear   41 41     100%     30.07        
Jan 17 21:35 Calm 5 Clear   41 41     100%     30.06        
Jan 17 21:15 S 3 5 Clear   41 41     100% 39   30.06        
Jan 17 20:55 Calm 7 Clear   39 39     100%     30.06        
Jan 17 20:35 SSE 3 8 Clear   39 39     100% 37   30.06        
Jan 17 20:15 Calm 4 Clear   39 39     100%     30.06        
Jan 17 19:55 Calm 7 Clear   39 39     100%     30.06        
Jan 17 19:35 SSE 3 5 Clear   39 39     100% 37   30.06        
Jan 17 19:15 SE 5 6 Clear   39 39     100% 36   30.05        
Jan 17 18:55 SE 6 5 Clear   39 39     100% 35   30.05        
Jan 17 18:35 SE 6 7 Clear   39 39     100% 35   30.05        
Jan 17 18:15 SE 6 5 Clear   39 39     100% 35   30.05        
Jan 17 17:55 SE 7 10 Clear   39 39     100% 34   30.04        
Jan 17 17:35 SSE 7 10 Clear   39 39     100% 34   30.03        
Jan 17 17:15 SE 6 10 Clear   39 39     100% 35   30.04        
Jan 17 16:55 SE 6 10 Clear   37 37     100% 33   30.03        
Jan 17 16:35 SE 8 10 Cloudy OVC014 37 37     100% 31   30.03        
Jan 17 16:15 SE 7 8 Clear   37 37     100% 32   30.04        
Jan 17 15:55 SSE 7 8 Clear   37 37     100% 32   30.04        
Jan 17 15:35 SSE 7 7 Cloudy FEW004 OVC012 37 37     100% 32   30.05        
Jan 17 15:15 SE 6 3 Clear   37 37     100% 33   30.05        
Jan 17 14:55 SSE 6 1.75 Clear   37 37     100% 33   30.06        
Jan 17 14:35 SSE 6 5 Clear   37 37     100% 33   30.06        
Jan 17 14:15 SSE 8 5 Clear   37 37     100% 31   30.06        
Jan 17 13:55 SSE 8 4 Clear   37 37     100% 31   30.06        
Jan 17 13:35 S 9 7 Clear   37 37     100% 31   30.07        
Jan 17 13:15 SSE 10 4 Clear   37 37     100% 30   30.08        
Jan 17 12:55 SSE 9 5 Clear   37 37     100% 31   30.1        
Jan 17 12:35 SSE 8 5 Clear   37 37     100% 31   30.1        
Jan 17 12:15 SE 10 5 Clear   36 36     100% 28   30.12        
Jan 17 11:55 SE 12 5 Clear   36 36     100% 28   30.14        
Jan 17 11:35 SE 8 2.5 Clear   36 36     100% 29   30.13        
Jan 17 11:15 SE 10 2.5 Clear   36 36     100% 28   30.16        
Jan 17 10:55 ESE 8 2.5 Clear   36 36     100% 29   30.18        
Jan 17 10:35 SE 7 3 Clear   36 36     100% 30   30.18        
Jan 17 10:15 SE 7 4 Clear   36 36     100% 30   30.18        
Jan 17 09:55 SSE 7 3 Clear   36 36     100% 30   30.17        
Jan 17 09:35 SSE 6 3 Cloudy OVC044 37 34     87% 33   30.17        
Jan 17 09:15 SSE 8 10 Clear   37 32     81% 31   30.16        
Jan 17 08:55 SE 7 10 Clear   37 32     81% 32   30.14        
Jan 17 08:35 SSE 6 10 Cloudy FEW041 BKN050 OVC120 37 32     81% 33   30.15        
Jan 17 08:15 SE 10 10 Clear   37 32     81% 30   30.13        
Jan 17 07:55 SE 8 10 Clear   37 32     81% 31   30.16        
Jan 17 07:35 SE 6 10 Clear   37 32     81% 33   30.18        
Jan 17 07:15 SE 5 10 Clear   37 32     81% 34   30.17        
Jan 17 06:55 SSE 8 10 Clear   37 32     81% 31   30.17        
Jan 17 06:35 SE 8 10 Clear   37 32     81% 31   30.17        
Jan 17 06:15 SE 7 10 Clear   37 32     81% 32   30.17        
Jan 17 05:55 SE 8 10 Clear   37 32     81% 31   30.19        
Jan 17 05:35 SE 7 10 Clear   37 32     81% 32   30.19        
Jan 17 05:15 SE 7 10 Clear   37 32     81% 32   30.19        
Jan 17 04:55 SE 8 10 Clear   37 32     81% 31   30.2        
Jan 17 04:35 SE 8 10 Clear   37 32     81% 31   30.2        
Jan 17 04:15 SE 7 10 Clear   37 34     87% 32   30.21        
Jan 17 03:55 SSE 7 10 Clear   37 32     81% 32   30.22        
Jan 17 03:35 SE 6 10 Clear   37 34     87% 33   30.23        
Jan 17 03:15 SE 5 10 Clear   37 32     81% 34   30.23        
Jan 17 02:55 SE 7 10 Clear   37 32     81% 32   30.23        
Jan 17 02:35 SE 7 10 Clear   37 32     81% 32   30.23        
Jan 17 01:55 SE 6 10 Clear   37 32     81% 33   30.23        
Jan 17 01:35 SE 6 10 Cloudy OVC031 37 32     81% 33   30.23        
Jan 17 01:15 SE 5 10 Clear   37 32     81% 34   30.23        
Jan 17 00:55 SE 5 10 Clear   37 32     81% 34   30.24        
Jan 17 00:35 SE 5 10 Clear   37 32     81% 34   30.24        
Jan 17 00:15 ESE 3 10 Clear   37 32     81% 35   30.26        
Jan 16 23:55 SE 3 10 Clear   37 32     81% 35   30.27        
Jan 16 23:35 SE 3 10 Mostly Cloudy BKN031 37 32     81% 35   30.27        
Jan 16 23:15 Calm 10 Clear   37 32     81%     30.27        
Jan 16 22:55 Calm 10 Clear   37 32     81%     30.27        
Jan 16 22:35 SSE 3 10 Clear   37 34     87% 35   30.27        
Jan 16 22:15 SE 3 10 Clear   37 34     87% 35   30.26        
Jan 16 21:55 SE 5 10 Clear   37 34     87% 34   30.26        
Jan 16 21:35 SE 3 10 Clear   37 34     87% 35   30.26        
Jan 16 21:15 SSE 3 10 Clear   37 34     87% 35   30.26        
Jan 16 20:55 SE 5 10 Clear   37 32     81% 34   30.24        
Jan 16 20:35 SE 7 10 Clear   37 32     81% 32   30.23        
Jan 16 20:15 SE 6 10 Clear   37 34     87% 33   30.24        
Jan 16 19:55 SE 6 10 Clear   37 34     87% 33   30.25        
Jan 16 19:35 ESE 7 10 Cloudy OVC033 37 34     87% 32   30.24        
Jan 16 19:15 ESE 5 10 Clear   37 34     87% 34   30.26        
Jan 16 18:55 SE 3 10 Clear   37 34     87% 35   30.26        
Jan 16 18:35 SSE 3 10 Clear   37 34     87% 35   30.26        
Jan 16 18:15 SSE 5 10 Clear   37 34     87% 34   30.26        
Jan 16 17:55 SE 5 10 Clear   37 34     87% 34   30.25        
Jan 16 17:35 SSE 6 10 Clear   37 34     87% 33   30.26        
Jan 16 17:15 SSE 6 10 Clear   37 34     87% 33   30.26        
Jan 16 16:55 SSE 5 9 Clear   37 34     87% 34   30.26        
Jan 16 16:35 SSE 5 10 Mostly Cloudy BKN014 BKN031 37 34     87% 34   30.26        
Jan 16 16:15 SSE 3 9 Clear   37 34     87% 35   30.26        
Jan 16 15:55 SSE 5 9 Clear   37 34     87% 34   30.26        
Jan 16 15:35 WSW 3 10 Clear   37 34     87% 35   30.26        
Jan 16 15:15 Calm 10 Clear   37 34     87%     30.26        
Jan 16 14:55 Calm 10 Clear   37 34     87%     30.26        
Jan 16 14:35 SSE 3 10 Clear   37 34     87% 35   30.26        
Jan 16 14:15 SSE 3 9 Clear   37 34     87% 35   30.25        
Jan 16 13:55 S 3 10 Clear   36 34     93% 33   30.25        
Jan 16 13:35 S 3 10 Clear   36 34     93% 33   30.25        
Jan 16 13:15 Calm 10 Clear   36 34     93%     30.27        
Jan 16 12:55 Calm 10 Clear   36 32     87%     30.27        
Jan 16 12:35 SW 3 9 Cloudy OVC008 36 32     87% 33   30.28        
Jan 16 12:15 S 5 9 Clear   36 32     87% 32   30.29        
Jan 16 11:55 S 5 9 Clear   36 32     87% 32   30.29        
Jan 16 11:35 Calm 8 Cloudy OVC008 34 32     93%     30.3        
Jan 16 11:15 Calm 5 Clear   34 32     93%     30.3        
Jan 16 10:55 SSW 5 5 Clear   32 32     100% 27   30.3        
Jan 16 10:35 SSW 3 4 Cloudy OVC008 32 32     100% 29   30.3        
Jan 16 10:15 S 5 5 Clear   32 32     100% 27   30.29        
Jan 16 09:55 S 6 6 Clear   32 32     100% 26   30.29        
Jan 16 09:35 S 5 7 Clear   32 32     100% 27   30.29        
Jan 16 09:15 S 6 5 Clear   32 32     100% 26   30.29        
Jan 16 08:55 SSW 5 4 Clear   32 32     100% 27   30.29        
Jan 16 08:35 Calm 5 Clear   32 32     100%     30.29        
Jan 16 08:15 SSW 3 3 Cloudy OVC004 32 32     100% 29   30.28        
Jan 16 07:55 Calm 3 Clear   32 32     100%     30.28        
Jan 16 07:35 SSW 5 3 Clear   32 32     100% 27   30.27        
Jan 16 07:15 SSW 3 3 Clear   32 32     100% 29   30.27        
Jan 16 06:55 SSW 3 4 Clear   32 32     100% 29   30.27        
Jan 16 06:35 Calm 5 Clear   32 32     100%     30.27        
Jan 16 06:15 SW 5 8 Clear   32 30     93% 27   30.26        
Jan 16 05:55 Calm 9 Clear   32 30     93%     30.26        
Jan 16 05:35 SW 5 10 Clear   32 30     93% 27   30.25        
Jan 16 05:15 WSW 6 10 Clear   32 30     93% 26   30.25        
Jan 16 04:55 SSW 5 10 Clear   32 30     93% 27   30.24        
Jan 16 04:35 WSW 3 10 Clear   32 30     93% 29   30.24        
Jan 16 04:15 Calm 10 Clear   32 28     86%     30.24        
Jan 16 03:55 Calm 10 Clear   30 28     93%     30.24        
Jan 16 03:35 Calm 10 Clear   32 28     86%     30.24        
Jan 16 03:15 W 6 10 Clear   32 28     86% 26   30.25        
Jan 16 02:55 WSW 3 10 Clear   32 28     86% 29   30.24        
Jan 16 02:35 SW 3 10 Clear   30 28     93% 27   30.23        
Jan 16 02:15 Calm 10 Clear   30 28     93%     30.23        
Jan 16 01:55 Calm 10 Clear   32 28     86%     30.23        
Jan 16 01:35 SW 5 10 Clear   32 28     86% 27   30.24        
Jan 16 01:15 WSW 3 10 Cloudy OVC010 32 28     86% 29   30.23        
Jan 16 00:55 WSW 3 10 Clear   32 28     86% 29   30.24        
Jan 16 00:35 WSW 6 10 Clear   32 28     86% 26   30.24        
Jan 16 00:15 SW 3 10 Clear   32 28     86% 29   30.25        
Jan 15 23:55 SW 3 10 Clear   32 28     86% 29   30.25        
Jan 15 23:35 Calm 10 Clear   32 28     86%     30.26        
Jan 15 23:15 SW 6 10 Clear   32 28     86% 26   30.26        
Jan 15 22:55 SW 3 10 Clear   32 28     86% 29   30.26        
Jan 15 22:35 SW 5 10 Cloudy OVC012 32 28     86% 27   30.25        
Jan 15 22:15 SSW 6 10 Clear   32 28     86% 26   30.24        
Jan 15 21:55 SW 5 10 Clear   32 28     86% 27   30.25        
Jan 15 21:35 SW 5 10 Cloudy OVC014 32 28     86% 27   30.25        
Jan 15 21:15 SSW 8 10 Clear   32 28     86% 25   30.25        
Jan 15 20:55 SW 6 10 Clear   32 28     86% 26   30.25        
Jan 15 20:35 WSW 3 10 Clear   32 28     86% 29   30.25        
Jan 15 20:15 SW 3 10 Clear   32 28     86% 29   30.24        
Jan 15 19:55 SW 3 10 Clear   32 28     86% 29   30.24        
Jan 15 19:35 Calm 10 Cloudy OVC014 32 28     86%     30.24        
Jan 15 19:15 SSW 3 10 Clear   32 28     86% 29   30.25        
Jan 15 18:55 Calm 10 Clear   32 28     86%     30.26        
Jan 15 18:35 Calm 10 Clear   32 28     86%     30.26        
Jan 15 18:15 SW 3 10 Clear   32 28     86% 29   30.26        
Jan 15 17:55 SSW 3 10 Clear   32 28     86% 29   30.26        
Jan 15 17:35 WSW 3 10 Clear   32 28     86% 29   30.26        
Jan 15 17:15 Calm 10 Clear   32 27     80%     30.25        
Jan 15 16:55 Calm 10 Clear   32 27     80%     30.25        
Jan 15 16:35 SW 3 10 Clear   32 28     86% 29   30.26        
Jan 15 16:15 S 3 10 Clear   32 28     86% 29   30.26        
Jan 15 15:55 W 5 10 Clear   32 28     86% 27   30.27        
Jan 15 15:35 Calm 10 Clear   32 28     86%     30.27        
Jan 15 15:15 Calm 10 Clear   32 27     80%     30.27        
Jan 15 14:55 Calm 10 Clear   32 27     80%     30.27        
Jan 15 14:35 WSW 5 10 Clear   32 27     80% 27   30.27        
Jan 15 14:15 SSW 3 10 Clear   32 27     80% 29   30.27        
Jan 15 13:55 Calm 10 Clear   32 27     80%     30.27        
Jan 15 13:35 SW 3 10 Clear   32 27     80% 29   30.27        
Jan 15 13:15 Calm 10 Clear   32 27     80%     30.28        
Jan 15 12:55 WSW 5 10 Clear   32 27     80% 27   30.29        
Jan 15 12:35 WSW 3 10 Cloudy OVC014 32 27     80% 29   30.3        
Jan 15 12:15 Calm 10 Cloudy OVC014 32 27     80%     30.31        
Jan 15 11:55 Calm 10 Clear   32 27     80%     30.32        
Jan 15 11:35 Calm 10 Clear   32 27     80%     30.33        
Jan 15 11:15 Calm 10 Clear   32 27     80%     30.33        
Jan 15 10:55 Calm 10 Clear   30 27     86%     30.33        
Jan 15 10:35 Calm 7 Cloudy OVC014 30 28     93%     30.33        
Jan 15 10:15 Calm 10 Clear   30 27     86%     30.33        
Jan 15 09:55 Calm 6 Clear   28 28     100%     30.34        
Jan 15 09:35 Calm 5 Clear   28 28     100%     30.33        
Jan 15 09:15 Calm 4 Clear   28 28     100%     30.31        
Jan 15 08:55 Calm 5 Clear   28 28     100%     30.3        
Jan 15 08:35 Calm 6 Clear   28 28     100%     30.3        
Jan 15 08:15 Calm 6 Clear   28 28     100%     30.3        
Jan 15 07:55 Calm 5 Clear   28 28     100%     30.29        
Jan 15 07:35 Calm 5 Clear   27 27     100%     30.3        
Jan 15 07:15 Calm 5 Clear   27 27     100%     30.31        
Jan 15 06:55 Calm 6 Clear   27 27     100%     30.29        
Jan 15 06:35 Calm 5 Cloudy OVC024 27 27     100%     30.29        
Jan 15 06:15 Calm 7 Clear   27 27     100%     30.29        
Jan 15 05:55 Calm 5 Clear   27 27     100%     30.28        
Jan 15 05:35 Calm 5 Clear   28 28     100%     30.29        
Jan 15 05:15 Calm 5 Clear   27 27     100%     30.29        
Jan 15 04:55 Calm 7 Clear   28 28     100%     30.29        
Jan 15 04:35 Calm 4 Clear   28 28     100%     30.29        
Jan 15 04:15 Calm 4 Clear   28 28     100%     30.29        
Jan 15 03:55 Calm 5 Clear   28 28     100%     30.29        
Jan 15 03:35 Calm 4 Clear   28 28     100%     30.3        
Jan 15 03:15 Calm 7 Clear   28 28     100%     30.29        
Jan 15 02:55 Calm 7 Clear   28 28     100%     30.29        
Jan 15 02:35 Calm 9 Clear   28 28     100%     30.29        
Jan 15 02:15 Calm 7 Clear   28 28     100%     30.29        
Jan 15 01:55 Calm 9 Clear   28 28     100%     30.29        
Jan 15 01:35 Calm 9 Clear   30 28     93%     30.28        
Jan 15 01:15 Calm 10 Clear   30 28     93%     30.28        
Jan 15 00:55 Calm 10 Clear   30 27     86%     30.28        
May 15 12:15 SSW 5 10 Clear   84 68     58%   87 30.01        
May 15 11:15 SSW 6 10 Clear   81 68     66%   83 30.02        
May 15 07:55 Calm 10 Clear   66 66     100%     30.02        
May 14 20:35 Calm 10 Clear   81 66     62%   83 29.97        
May 14 18:55 S 3 10 Clear   84 64     52%   86 29.98        
Notice The following observation data may not be complete
May 14 17:55   10 Clear            %              
May 14 12:35 N 3 10 Clear   82 64     55%   84 30.1        
May 13 23:35 Calm 10 Clear   68 64     88%     30.11        
May 13 21:35 Calm 10 Clear   75 61     61%   75 30.07        
May 13 20:35 WNW 5 10 Clear   79 61     54%   79 30.06        
May 13 13:55 W 6 10 Clear   84 61     45%   84 30.11        
May 13 09:15 Calm 9 Clear   66 64     94%     30.17        
May 13 08:15 Calm 9 Clear   61 61     100%     30.16        
May 13 02:35 Calm 8 Clear   59 59     100%     30.11        
May 12 16:55 WNW 8 10 Clear   84 57     40%   83 30.1        
May 12 11:55 WSW 7 10 Clear   81 59     48%   81 30.19        
May 12 09:55 SSW 6 10 Clear   75 63     65%   75 30.19        
May 12 03:55 Calm 10 Clear   63 63     100%     30.11        
May 12 01:15 SSE 7 10 Clear   64 63     94%     30.1        
May 11 22:15 Calm 10 Clear   72 59     65%   71 30.08        
May 11 14:35 SW 8 10 Clear   84 61     45%   84 30.09